Year,Month,Day,Hour,Minute,Value (Times are PST for temperature in C)
2012,06,01,13,33,19.10
2012,06,01,13,34,19.10
2012,06,01,13,35,19.10
2012,06,01,13,36,18.90
2012,06,01,13,37,18.90
2012,06,01,13,38,18.90
2012,06,01,13,39,18.80
2012,06,01,13,40,18.80
2012,06,01,13,41,18.80
2012,06,01,13,42,18.80
2012,06,01,13,43,18.80
2012,06,01,13,44,18.80
2012,06,01,13,45,18.90
2012,06,01,13,46,18.90
2012,06,01,13,47,18.90
2012,06,01,13,48,18.90
2012,06,01,13,49,18.90
2012,06,01,13,50,18.90
2012,06,01,13,51,18.90
2012,06,01,13,52,19.00
2012,06,01,13,53,19.10
2012,06,01,13,54,19.10
2012,06,01,13,55,19.10
2012,06,01,13,56,19.10
2012,06,01,13,57,19.10
2012,06,01,13,58,19.10
2012,06,01,13,59,19.20
2012,06,01,14,00,19.20
2012,06,01,14,01,19.20
2012,06,01,14,02,19.20
2012,06,01,14,03,19.10
2012,06,01,14,04,19.20
2012,06,01,14,05,19.20
2012,06,01,14,06,19.20
2012,06,01,14,07,19.20
2012,06,01,14,08,19.20
2012,06,01,14,09,19.20
2012,06,01,14,10,19.20
2012,06,01,14,11,19.20
2012,06,01,14,12,19.20
2012,06,01,14,13,19.20
2012,06,01,14,14,19.20
2012,06,01,14,15,19.30
2012,06,01,14,16,19.30
2012,06,01,14,17,19.20
2012,06,01,14,18,18.90
2012,06,01,14,19,18.60
2012,06,01,14,20,18.20
2012,06,01,14,21,17.90
2012,06,01,14,22,17.60
2012,06,01,14,23,17.40
2012,06,01,14,24,17.20
2012,06,01,14,25,17.10
2012,06,01,14,26,17.00
2012,06,01,14,27,16.90
2012,06,01,14,28,16.90
2012,06,01,14,29,16.90
2012,06,01,14,30,16.90
2012,06,01,14,31,16.90
2012,06,01,14,32,16.90
2012,06,01,14,33,16.90
2012,06,01,14,34,16.90
2012,06,01,14,35,16.90
2012,06,01,14,36,16.80
2012,06,01,14,37,16.80
2012,06,01,14,38,16.70
2012,06,01,14,39,16.70
2012,06,01,14,40,16.60
2012,06,01,14,41,16.70
2012,06,01,14,42,16.80
2012,06,01,14,43,16.80
2012,06,01,14,44,16.90
2012,06,01,14,45,17.00
2012,06,01,14,46,17.10
2012,06,01,14,47,17.20
2012,06,01,14,48,17.20
2012,06,01,14,49,17.30
2012,06,01,14,50,17.60
2012,06,01,14,51,17.90
2012,06,01,14,52,18.10
2012,06,01,14,53,18.30
2012,06,01,14,54,18.60
2012,06,01,14,55,18.70
2012,06,01,14,56,18.90
2012,06,01,14,57,19.00
2012,06,01,14,58,19.10
2012,06,01,14,59,19.20
2012,06,01,15,00,19.30
2012,06,01,15,01,19.40
2012,06,01,15,02,19.30
2012,06,01,15,03,19.10
2012,06,01,15,04,19.00
2012,06,01,15,05,18.80
2012,06,01,15,06,18.60
2012,06,01,15,07,18.40
2012,06,01,15,08,18.30
2012,06,01,15,09,18.10
2012,06,01,15,10,18.10
2012,06,01,15,11,18.00
2012,06,01,15,12,18.10
2012,06,01,15,13,18.10
2012,06,01,15,14,18.20
2012,06,01,15,15,18.30
2012,06,01,15,16,18.30
2012,06,01,15,17,18.30
2012,06,01,15,18,18.40
2012,06,01,15,19,18.40
2012,06,01,15,20,18.50
2012,06,01,15,21,18.60
2012,06,01,15,22,18.70
2012,06,01,15,23,18.80
2012,06,01,15,24,18.90
2012,06,01,15,25,19.00
2012,06,01,15,26,19.10
2012,06,01,15,27,19.20
2012,06,01,15,28,19.30
2012,06,01,15,29,19.30
2012,06,01,15,30,19.30
2012,06,01,15,31,19.40
2012,06,01,15,32,19.40
2012,06,01,15,33,19.50
2012,06,01,15,34,19.60
2012,06,01,15,35,19.60
2012,06,01,15,36,19.60
2012,06,01,15,37,19.60
2012,06,01,15,38,19.60
2012,06,01,15,39,19.50
2012,06,01,15,40,19.40
2012,06,01,15,41,19.30
2012,06,01,15,42,19.30
2012,06,01,15,43,19.30
2012,06,01,15,44,19.30
2012,06,01,15,45,19.20
2012,06,01,15,46,19.20
2012,06,01,15,47,19.20
2012,06,01,15,48,19.20
2012,06,01,15,49,19.20
2012,06,01,15,50,19.30
2012,06,01,15,51,19.30
2012,06,01,15,52,19.30
2012,06,01,15,53,19.20
2012,06,01,15,54,19.20
2012,06,01,15,55,19.30
2012,06,01,15,56,19.30
2012,06,01,15,57,19.20
2012,06,01,15,58,19.10
2012,06,01,15,59,19.10
2012,06,01,16,00,19.20
2012,06,01,16,01,19.20
2012,06,01,16,02,19.20
2012,06,01,16,03,19.20
2012,06,01,16,04,19.20
2012,06,01,16,05,19.20
2012,06,01,16,06,19.10
2012,06,01,16,07,19.10
2012,06,01,16,08,19.10
2012,06,01,16,09,19.10
2012,06,01,16,10,19.10
2012,06,01,16,11,19.00
2012,06,01,16,12,18.90
2012,06,01,16,13,18.90
2012,06,01,16,14,18.80
2012,06,01,16,15,18.80
2012,06,01,16,16,18.80
2012,06,01,16,17,18.80
2012,06,01,16,18,18.90
2012,06,01,16,19,18.80
2012,06,01,16,20,18.80
2012,06,01,16,21,18.80
2012,06,01,16,22,18.70
2012,06,01,16,23,18.70
2012,06,01,16,24,18.70
2012,06,01,16,25,18.70
2012,06,01,16,26,18.70
2012,06,01,16,27,18.70
2012,06,01,16,28,18.70
2012,06,01,16,29,18.70
2012,06,01,16,30,18.70
2012,06,01,16,31,18.70
2012,06,01,16,32,18.70
2012,06,01,16,33,18.60
2012,06,01,16,34,18.60
2012,06,01,16,35,18.60
2012,06,01,16,36,18.60
2012,06,01,16,37,18.60
2012,06,01,16,38,18.50
2012,06,01,16,39,18.50
2012,06,01,16,40,18.40
2012,06,01,16,41,18.40
2012,06,01,16,42,18.40
2012,06,01,16,43,18.40
2012,06,01,16,44,18.30
2012,06,01,16,45,18.30
2012,06,01,16,46,18.30
2012,06,01,16,47,18.30
2012,06,01,16,48,18.20
2012,06,01,16,49,18.20
2012,06,01,16,50,18.30
2012,06,01,16,51,18.30
2012,06,01,16,52,18.30
2012,06,01,16,53,18.30
2012,06,01,16,54,18.20
2012,06,01,16,55,18.20
2012,06,01,16,56,18.20
2012,06,01,16,57,18.20
2012,06,01,16,58,18.20
2012,06,01,16,59,18.20
2012,06,01,17,00,18.20
2012,06,01,17,01,18.20
2012,06,01,17,02,18.20
2012,06,01,17,03,18.20
2012,06,01,17,04,18.20
2012,06,01,17,05,18.20
2012,06,01,17,06,18.20
2012,06,01,17,07,18.20
2012,06,01,17,08,18.20
2012,06,01,17,09,18.20
2012,06,01,17,10,18.10
2012,06,01,17,11,18.10
2012,06,01,17,12,18.10
2012,06,01,17,13,18.00
2012,06,01,17,14,18.10
2012,06,01,17,15,18.00
2012,06,01,17,16,18.00
2012,06,01,17,17,17.90
2012,06,01,17,18,17.90
2012,06,01,17,19,17.80
2012,06,01,17,20,17.80
2012,06,01,17,21,17.80
2012,06,01,17,22,17.70
2012,06,01,17,23,17.70
2012,06,01,17,24,17.70
2012,06,01,17,25,17.70
2012,06,01,17,26,17.60
2012,06,01,17,27,17.60
2012,06,01,17,28,17.60
2012,06,01,17,29,17.60
2012,06,01,17,30,17.60
2012,06,01,17,31,17.50
2012,06,01,17,32,17.50
2012,06,01,17,33,17.50
2012,06,01,17,34,17.40
2012,06,01,17,35,17.40
2012,06,01,17,36,17.40
2012,06,01,17,37,17.40
2012,06,01,17,38,17.40
2012,06,01,17,39,17.40
2012,06,01,17,40,17.40
2012,06,01,17,41,17.30
2012,06,01,17,42,17.30
2012,06,01,17,43,17.30
2012,06,01,17,44,17.30
2012,06,01,17,45,17.30
2012,06,01,17,46,17.30
2012,06,01,17,47,17.30
2012,06,01,17,48,17.20
2012,06,01,17,49,17.20
2012,06,01,17,50,17.20
2012,06,01,17,51,17.20
2012,06,01,17,52,17.20
2012,06,01,17,53,17.20
2012,06,01,17,54,17.20
2012,06,01,17,55,17.20
2012,06,01,17,56,17.20
2012,06,01,17,57,17.10
2012,06,01,17,58,17.10
2012,06,01,17,59,17.10
2012,06,01,18,00,17.00
2012,06,01,18,01,17.00
2012,06,01,18,02,17.00
2012,06,01,18,03,17.00
2012,06,01,18,04,17.00
2012,06,01,18,05,17.00
2012,06,01,18,06,17.00
2012,06,01,18,07,17.00
2012,06,01,18,08,17.10
2012,06,01,18,09,17.10
2012,06,01,18,10,17.10
2012,06,01,18,11,17.10
2012,06,01,18,12,17.10
2012,06,01,18,13,17.10
2012,06,01,18,14,17.00
2012,06,01,18,15,17.00
2012,06,01,18,16,17.00
2012,06,01,18,17,17.00
2012,06,01,18,18,17.00
2012,06,01,18,19,16.90
2012,06,01,18,20,16.90
2012,06,01,18,21,16.90
2012,06,01,18,22,16.90
2012,06,01,18,23,16.90
2012,06,01,18,24,16.80
2012,06,01,18,25,16.80
2012,06,01,18,26,16.80
2012,06,01,18,27,16.80
2012,06,01,18,28,16.80
2012,06,01,18,29,16.70
2012,06,01,18,30,16.70
2012,06,01,18,31,16.70
2012,06,01,18,32,16.60
2012,06,01,18,33,16.60
2012,06,01,18,34,16.60
2012,06,01,18,35,16.60
2012,06,01,18,36,16.60
2012,06,01,18,37,16.60
2012,06,01,18,38,16.60
2012,06,01,18,39,16.60
2012,06,01,18,40,16.50
2012,06,01,18,41,16.40
2012,06,01,18,42,16.40
2012,06,01,18,43,16.40
2012,06,01,18,44,16.30
2012,06,01,18,45,16.30
2012,06,01,18,46,16.30
2012,06,01,18,47,16.30
2012,06,01,18,48,16.20
2012,06,01,18,49,16.20
2012,06,01,18,50,16.20
2012,06,01,18,51,16.20
2012,06,01,18,52,16.20
2012,06,01,18,53,16.10
2012,06,01,18,54,16.10
2012,06,01,18,55,16.10
2012,06,01,18,56,16.00
2012,06,01,18,57,16.00
2012,06,01,18,58,15.90
2012,06,01,18,59,15.90
2012,06,01,19,00,15.90
2012,06,01,19,01,15.80
2012,06,01,19,02,15.80
2012,06,01,19,03,15.80
2012,06,01,19,04,15.80
2012,06,01,19,05,15.80
2012,06,01,19,06,15.80
2012,06,01,19,07,15.80
2012,06,01,19,08,15.70
2012,06,01,19,09,15.70
2012,06,01,19,10,15.70
2012,06,01,19,11,15.60
2012,06,01,19,12,15.60
2012,06,01,19,13,15.60
2012,06,01,19,14,15.60
2012,06,01,19,15,15.60
2012,06,01,19,16,15.70
2012,06,01,19,17,15.70
2012,06,01,19,18,15.70
2012,06,01,19,19,15.70
2012,06,01,19,20,15.80
2012,06,01,19,21,15.80
2012,06,01,19,22,15.80
2012,06,01,19,23,15.80
2012,06,01,19,24,15.80
2012,06,01,19,25,15.80
2012,06,01,19,26,15.80
2012,06,01,19,27,15.80
2012,06,01,19,28,15.80
2012,06,01,19,29,15.80
2012,06,01,19,30,15.80
2012,06,01,19,31,15.80
2012,06,01,19,32,15.80
2012,06,01,19,33,15.80
2012,06,01,19,34,15.70
2012,06,01,19,35,15.80
2012,06,01,19,36,15.70
2012,06,01,19,37,15.70
2012,06,01,19,38,15.70
2012,06,01,19,39,15.70
2012,06,01,19,40,15.70
2012,06,01,19,41,15.60
2012,06,01,19,42,15.60
2012,06,01,19,43,15.60
2012,06,01,19,44,15.60
2012,06,01,19,45,15.60
2012,06,01,19,46,15.60
2012,06,01,19,47,15.60
2012,06,01,19,48,15.60
2012,06,01,19,49,15.60
2012,06,01,19,50,15.60
2012,06,01,19,51,15.60
2012,06,01,19,52,15.60
2012,06,01,19,53,15.60
2012,06,01,19,54,15.60
2012,06,01,19,55,15.50
2012,06,01,19,56,15.50
2012,06,01,19,57,15.50
2012,06,01,19,58,15.50
2012,06,01,19,59,15.50
2012,06,01,20,00,15.40
2012,06,01,20,01,15.40
2012,06,01,20,02,15.40
2012,06,01,20,03,15.40
2012,06,01,20,04,15.40
2012,06,01,20,05,15.40
2012,06,01,20,06,15.40
2012,06,01,20,07,15.40
2012,06,01,20,08,15.40
2012,06,01,20,09,15.40
2012,06,01,20,10,15.40
2012,06,01,20,11,15.40
2012,06,01,20,12,15.30
2012,06,01,20,13,15.30
2012,06,01,20,14,15.30
2012,06,01,20,15,15.30
2012,06,01,20,16,15.30
2012,06,01,20,17,15.30
2012,06,01,20,18,15.30
2012,06,01,20,19,15.30
2012,06,01,20,20,15.30
2012,06,01,20,21,15.30
2012,06,01,20,22,15.30
2012,06,01,20,23,15.40
2012,06,01,20,24,15.40
2012,06,01,20,25,15.40
2012,06,01,20,26,15.40
2012,06,01,20,27,15.40
2012,06,01,20,28,15.40
2012,06,01,20,29,15.40
2012,06,01,20,30,15.40
2012,06,01,20,31,15.40
2012,06,01,20,32,15.40
2012,06,01,20,33,15.40
2012,06,01,20,34,15.40
2012,06,01,20,35,15.40
2012,06,01,20,36,15.40
2012,06,01,20,37,15.40
2012,06,01,20,38,15.40
2012,06,01,20,39,15.40
2012,06,01,20,40,15.40
2012,06,01,20,41,15.40
2012,06,01,20,42,15.40
2012,06,01,20,43,15.40
2012,06,01,20,44,15.40
2012,06,01,20,45,15.40
2012,06,01,20,46,15.40
2012,06,01,20,47,15.30
2012,06,01,20,48,15.30
2012,06,01,20,49,15.20
2012,06,01,20,50,15.00
2012,06,01,20,51,14.90
2012,06,01,20,52,14.70
2012,06,01,20,53,14.50
2012,06,01,20,54,14.30
2012,06,01,20,55,14.20
2012,06,01,20,56,14.20
2012,06,01,20,57,14.10
2012,06,01,20,58,14.00
2012,06,01,20,59,14.00
2012,06,01,21,00,14.00
2012,06,01,21,01,13.90
2012,06,01,21,02,13.90
2012,06,01,21,03,13.90
2012,06,01,21,04,13.90
2012,06,01,21,05,13.90
2012,06,01,21,06,13.90
2012,06,01,21,07,13.90
2012,06,01,21,08,14.00
2012,06,01,21,09,14.10
2012,06,01,21,10,14.30
2012,06,01,21,11,14.40
2012,06,01,21,12,14.50
2012,06,01,21,13,14.60
2012,06,01,21,14,14.60
2012,06,01,21,15,14.70
2012,06,01,21,16,14.70
2012,06,01,21,17,14.70
2012,06,01,21,18,14.80
2012,06,01,21,19,14.80
2012,06,01,21,20,14.80
2012,06,01,21,21,14.80
2012,06,01,21,22,14.80
2012,06,01,21,23,14.80
2012,06,01,21,24,14.80
2012,06,01,21,25,14.80
2012,06,01,21,26,14.80
2012,06,01,21,27,14.80
2012,06,01,21,28,14.80
2012,06,01,21,29,14.70
2012,06,01,21,30,14.70
2012,06,01,21,31,14.70
2012,06,01,21,32,14.70
2012,06,01,21,33,14.70
2012,06,01,21,34,14.60
2012,06,01,21,35,14.60
2012,06,01,21,36,14.60
2012,06,01,21,37,14.60
2012,06,01,21,38,14.60
2012,06,01,21,39,14.50
2012,06,01,21,40,14.50
2012,06,01,21,41,14.50
2012,06,01,21,42,14.40
2012,06,01,21,43,14.30
2012,06,01,21,44,14.30
2012,06,01,21,45,14.20
2012,06,01,21,46,14.10
2012,06,01,21,47,14.00
2012,06,01,21,48,13.90
2012,06,01,21,49,13.90
2012,06,01,21,50,13.80
2012,06,01,21,51,13.80
2012,06,01,21,52,13.70
2012,06,01,21,53,13.70
2012,06,01,21,54,13.60
2012,06,01,21,55,13.60
2012,06,01,21,56,13.50
2012,06,01,21,57,13.40
2012,06,01,21,58,13.40
2012,06,01,21,59,13.40
2012,06,01,22,00,13.40
2012,06,01,22,01,13.40
2012,06,01,22,02,13.40
2012,06,01,22,03,13.50
2012,06,01,22,04,13.50
2012,06,01,22,05,13.60
2012,06,01,22,06,13.60
2012,06,01,22,07,13.60
2012,06,01,22,08,13.70
2012,06,01,22,09,13.70
2012,06,01,22,10,13.70
2012,06,01,22,11,13.70
2012,06,01,22,12,13.80
2012,06,01,22,13,13.80
2012,06,01,22,14,13.80
2012,06,01,22,15,13.80
2012,06,01,22,16,13.90
2012,06,01,22,17,13.90
2012,06,01,22,18,13.90
2012,06,01,22,19,13.90
2012,06,01,22,20,13.90
2012,06,01,22,21,13.90
2012,06,01,22,22,13.90
2012,06,01,22,23,13.90
2012,06,01,22,24,13.90
2012,06,01,22,25,14.00
2012,06,01,22,26,14.00
2012,06,01,22,27,14.00
2012,06,01,22,28,14.00
2012,06,01,22,29,14.00
2012,06,01,22,30,14.00
2012,06,01,22,31,14.00
2012,06,01,22,32,14.00
2012,06,01,22,33,13.90
2012,06,01,22,34,13.90
2012,06,01,22,35,13.90
2012,06,01,22,36,13.90
2012,06,01,22,37,13.90
2012,06,01,22,38,13.90
2012,06,01,22,39,13.90
2012,06,01,22,40,13.90
2012,06,01,22,41,13.90
2012,06,01,22,42,13.80
2012,06,01,22,43,13.80
2012,06,01,22,44,13.80
2012,06,01,22,45,13.80
2012,06,01,22,46,13.80
2012,06,01,22,47,13.80
2012,06,01,22,48,13.80
2012,06,01,22,49,13.80
2012,06,01,22,50,13.80
2012,06,01,22,51,13.80
2012,06,01,22,52,13.80
2012,06,01,22,53,13.80
2012,06,01,22,54,13.80
2012,06,01,22,55,13.80
2012,06,01,22,56,13.80
2012,06,01,22,57,13.80
2012,06,01,22,58,13.80
2012,06,01,22,59,13.80
2012,06,01,23,00,13.80
2012,06,01,23,01,13.80
2012,06,01,23,02,13.80
2012,06,01,23,03,13.80
2012,06,01,23,04,13.70
2012,06,01,23,05,13.70
2012,06,01,23,06,13.70
2012,06,01,23,07,13.60
2012,06,01,23,08,13.60
2012,06,01,23,09,13.60
2012,06,01,23,10,13.60
2012,06,01,23,11,13.60
2012,06,01,23,12,13.60
2012,06,01,23,13,13.60
2012,06,01,23,14,13.60
2012,06,01,23,15,13.60
2012,06,01,23,16,13.60
2012,06,01,23,17,13.60
2012,06,01,23,18,13.60
2012,06,01,23,19,13.60
2012,06,01,23,20,13.60
2012,06,01,23,21,13.50
2012,06,01,23,22,13.50
2012,06,01,23,23,13.50
2012,06,01,23,24,13.50
2012,06,01,23,25,13.50
2012,06,01,23,26,13.50
2012,06,01,23,27,13.50
2012,06,01,23,28,13.60
2012,06,01,23,29,13.60
2012,06,01,23,30,13.60
2012,06,01,23,31,13.60
2012,06,01,23,32,13.70
2012,06,01,23,33,13.70
2012,06,01,23,34,13.70
2012,06,01,23,35,13.70
2012,06,01,23,36,13.70
2012,06,01,23,37,13.70
2012,06,01,23,38,13.80
2012,06,01,23,39,13.80
2012,06,01,23,40,13.80
2012,06,01,23,41,13.80
2012,06,01,23,42,13.80
2012,06,01,23,43,13.80
2012,06,01,23,44,13.90
2012,06,01,23,45,13.90
2012,06,01,23,46,13.90
2012,06,01,23,47,13.90
2012,06,01,23,48,13.90
2012,06,01,23,49,13.90
2012,06,01,23,50,13.90
2012,06,01,23,51,13.90
2012,06,01,23,52,13.90
2012,06,01,23,53,13.90
2012,06,01,23,54,13.90
2012,06,01,23,55,13.90
2012,06,01,23,56,13.80
2012,06,01,23,57,13.80
2012,06,01,23,58,13.80
2012,06,01,23,59,13.80
